Location: Innerarity Island Observatory
(30.3139°N, 87.4867°W)
Time: 12:06:16
(UTC-05:00)

OPAL - Visible Passes

Search period start: 27 April 2015 00:00
Search period end: 07 May 2015 00:00
Orbit: 744 x 796 km, 100.2° (Epoch: 27 April)

Date Brightness Start Highest point End Pass type
(mag) Time Alt. Az. Time Alt. Az. Time Alt. Az.
27 Apr 9.0 21:11:35 10° N 21:16:24 39° WNW 21:21:11 10° SW visible
28 Apr 7.5 20:35:57 10° NNE 20:41:11 89° ESE 20:46:25 10° SSW visible
29 Apr 8.1 20:01:02 10° NE 20:05:47 37° E 20:10:37 10° SSE visible
29 Apr 10.0 21:40:33 10° NNW 21:44:28 21° WNW 21:48:14 10° WSW visible
30 Apr 8.5 21:04:19 10° N 21:09:20 48° WNW 21:14:19 10° SW visible
01 May 7.5 20:28:52 10° NNE 20:34:04 71° ESE 20:39:17 10° S visible
01 May 10.6 22:10:44 10° NW 22:12:28 11° WNW 22:13:50 10° W visible
02 May 8.4 19:54:09 10° NE 19:58:38 29° E 20:03:10 10° SSE visible
02 May 9.7 21:33:05 10° NNW 21:37:25 26° WNW 21:41:38 10° WSW visible
03 May 8.1 20:57:06 10° N 21:02:15 61° WNW 21:07:23 10° SSW visible
04 May 7.6 20:21:49 10° NNE 20:26:57 56° ESE 20:32:04 10° S visible
04 May 10.5 22:02:35 10° NNW 22:05:26 14° WNW 22:08:00 10° W visible
05 May 9.3 21:25:42 10° N 21:30:21 32° WNW 21:34:55 10° SW visible
06 May 7.7 20:49:56 10° N 20:55:09 77° WNW 21:00:22 10° SSW visible
